Regional Weather Roundup
Issued by NWS Bismarck, ND

Home | Current Version | Previous Version | Text Only | Print | Product List | Glossary On
Versions: 1 2 3 4 5 6 7 8 9 10 11 12 13 14 15 16 17 18 19 20 21 22 23 24 25 26 27 28 29 30 31 32 33 34 35 36 37 38 39 40 41 42 43 44 45 46 47 48 49 50
000
ASUS43 KBIS 290710
RWRBIS

NWR BROADCAST TEXT
NATIONAL WEATHER SERVICE BISMARCK ND
100 AM CST MON DEC 29 2014

NOTE: "FAIR" INDICATES FEW OR NO CLOUDS BELOW 12,000 FEET WITH NO
SIGNIFICANT WEATHER AND/OR OBSTRUCTIONS TO VISIBILITY.


CITY           SKY/WX    TMP DP  RH WIND       PRES   REMARKS
WILLISTON      PTCLDY    -7 -13  75 N6        30.54R WCI -20
MINOT          CLEAR    -10 -16  74 NW8       30.51R WCI -26
MINOT AFB      CLEAR    -13 -17  80 NW7       30.53R WCI -28
BISMARCK       CLOUDY     1  -5  75 NE8       30.49R WCI -13
DICKINSON      CLOUDY     4  -1  80 NE16      30.37R HAZE    WCI -15
GARRISON         N/A     -7 -12  79 N9        30.48R WCI -24
HETTINGER ARPT LGT SNOW   5   0  79 NE12      30.34R WCI -11
JAMESTOWN      PTCLDY    -7 -12  79 NW7       30.48R WCI -21
BEACH          CLOUDY     5   1  85 NE8       30.39R WCI  -8
CARRINGTON     FAIR      -8  -9  92 MISG      30.49S
CROSBY         FAIR     -11 -15  84 NW7       30.56R WCI -26
HARVEY         FAIR      -9 -13  84 NW6       30.51R WCI -23
HAZEN          CLOUDY    -2  -9  71 E3        30.50R
LINTON         PTSUNNY    0  -4  85 N10       30.45R WCI -17
MANDAN         CLOUDY     0  -4  85 NE8       30.46S WCI -15
OAKES            N/A     -2  -8  78 N12       30.48R WCI -20
RUGBY          FAIR     -11 -17  77 CALM      30.52R
STANLEY        FAIR      -8 -11  84 N6        30.47R WCI -21
WATFORD CITY   FAIR      -4 -11  71 NE6       30.48R WCI -16
$$

CITY           SKY/WX    TMP DP  RH WIND       PRES   REMARKS
GRAND FORKS    PTCLDY    -9 -13  83 NW7       30.56R WCI -24
GRAND FORKS AF PTCLDY    -8 -12  82 N7        30.56R WCI -23
DEVILS LAKE    PTCLDY    -8 -17  65 N8        30.49S WCI -23
FARGO          CLEAR     -5 -11  75 N9        30.53R WCI -22
CANDO          FAIR     -11 -17  77 NW5       30.52R WCI -23
CAVALIER       FAIR      -9 -17  70 NW13      30.57R WCI -30
GWINNER        SUNNY      0  -8  71 N10       30.49R WCI -17
LANGDON        FAIR     -15 -20  76 NW8       30.47R WCI -32
ROLLA          FAIR     -13 -17  84 NW12      30.48S WCI -33
WALHALLA         N/A    -11 -17  77 N9        30.58R WCI -29
$$

CITY           SKY/WX    TMP DP  RH WIND       PRES   REMARKS
ABERDEEN       CLOUDY     3  -4  72 NE18      30.45R WCI -17
MOBRIDGE       FLURRIES   7   1  76 N13       30.37R WCI  -9
BUFFALO          N/A      8   4  83 NE15      30.20R WCI  -9
RAPID CITY     LGT SNOW  14  11  87 NE13      30.20R FOG     WCI   0
GLASGOW        CLOUDY     4  -5  66 NE7       30.52R WCI  -8
SIDNEY         CLOUDY     0  -8  71 N10       30.53R WCI -17
WOLF POINT     MOCLDY     1  -7  68 NE13      30.56R WCI -17
GLENDIVE       CLOUDY     5  -2  72 NE12      30.43R WCI -11
MILES CITY     LGT SNOW  10   6  84 NE17      30.37R FOG     WCI  -8
BAKER          LGT SNOW   7   2  80 NE12      30.33R WCI  -8
$$

CITY           SKY/WX    TMP DP  RH WIND       PRES   REMARKS
BILLINGS       LGT SNOW  12   9  87 NE14      30.31R FOG     WCI  -3
GREAT FALLS    LGT SNOW   3   1  92 N15       30.41R FOG     WCI -15
ESTEVAN        CLEAR    -15 -20  76 NW8       30.54R WCI -32
$$



USA.gov is the U.S. government's official web portal to all federal, state and local government web resources and services.